Simultaneous Nadir Overpasses (SNOs) Predictions

Prediction of SNOs between GOES-14 and NOAA-20 Satellite Orbit:

Table of predicted SNOs for the next 14.0 days since TLE Epoch: 3/8/2019
Index Date Time (GOES-14) GOES-14 Lat,Lon NOAA-20 Lat,Lon Distance(km) Time Diff (sec)
1 03/09/2019 08:20:44 0.07,-104.41 -0.12,-103.52 100.81 80
2 03/11/2019 20:23:55 -0.07,-104.26 -0.10,-104.29 4.80 80
3 03/14/2019 08:24:19 0.08,-104.41 0.22,-105.04 72.28 80
4 03/15/2019 08:08:14 0.08,-104.41 -0.80,-100.51 444.22 80
5 03/16/2019 20:30:10 -0.08,-104.26 -0.44,-105.81 176.53 80
6 03/17/2019 20:08:45 -0.09,-104.25 0.58,-101.28 338.99 80
7 03/19/2019 08:30:33 0.09,-104.39 0.56,-106.56 246.84 80
8 03/20/2019 08:14:29 0.09,-104.39 -0.46,-102.03 269.80 80
9 03/21/2019 20:36:24 -0.09,-104.26 -0.78,-107.33 348.91 80




NCC Satellite Simultaneous Nadir Overpasses (SNOs) Prediction Service
